| time (UTC) | temp F | wind direction | speed MPH | gust MPH | rain 1hr in | rain 24hr in | rain mn in | humidity % | barometer mb |
| 20260507191101 | 77 | 314 | 2.0 | 7.0 | 0.00 | 0.00 | 0.00 | 71 | 1010.8 |
| 20260507190828 | 76 | 49 | 2.0 | 7.0 | 0.00 | 0.00 | 0.00 | 72 | 1011.0 |
| 20260507190055 | 76 | 311 | 2.0 | 6.0 | 0.00 | 0.00 | 0.00 | 72 | 1011.0 |
| 20260507185554 | 76 | 282 | 1.0 | 6.0 | 0.00 | 0.00 | 0.00 | 72 | 1011.1 |
| 20260507185054 | 76 | 349 | 1.0 | 6.0 | 0.00 | 0.00 | 0.00 | 72 | 1011.1 |
| 20260507184555 | 75 | 41 | 2.0 | 7.0 | 0.00 | 0.00 | 0.00 | 73 | 1011.1 |
| 20260507184054 | 75 | 339 | 2.0 | 7.0 | 0.00 | 0.00 | 0.00 | 72 | 1011.1 |
| 20260507183549 | 75 | 6 | 3.0 | 10.0 | 0.00 | 0.00 | 0.00 | 73 | 1011.2 |
| 20260507183321 | 74 | 71 | 3.0 | 10.0 | 0.00 | 0.00 | 0.00 | 74 | 1011.2 |
| 20260507182550 | 75 | 13 | 2.0 | 9.0 | 0.00 | 0.00 | 0.00 | 73 | 1011.3 |
| 20260507182320 | 74 | 78 | 1.0 | 10.0 | 0.00 | 0.00 | 0.00 | 75 | 1011.3 |
| 20260507181548 | 73 | 61 | 2.0 | 10.0 | 0.00 | 0.00 | 0.00 | 76 | 1011.4 |
| 20260507181049 | 72 | 275 | 2.0 | 8.0 | 0.00 | 0.00 | 0.00 | 76 | 1011.3 |
| 20260507180550 | 72 | 30 | 2.0 | 8.0 | 0.00 | 0.00 | 0.00 | 75 | 1011.5 |
| 20260507180045 | 72 | 68 | 2.0 | 7.0 | 0.00 | 0.00 | 0.00 | 76 | 1011.6 |
| 20260507175545 | 71 | 345 | 2.0 | 7.0 | 0.00 | 0.00 | 0.00 | 76 | 1011.5 |
| 20260507175045 | 72 | 317 | 2.0 | 10.0 | 0.00 | 0.00 | 0.00 | 76 | 1011.6 |
| 20260507174545 | 72 | 302 | 2.0 | 10.0 | 0.00 | 0.00 | 0.00 | 77 | 1011.6 |
| 20260507174046 | 71 | 327 | 2.0 | 7.0 | 0.00 | 0.00 | 0.00 | 78 | 1011.7 |
| 20260507173546 | 71 | 16 | 2.0 | 7.0 | 0.00 | 0.00 | 0.00 | 78 | 1011.9 |
| 20260507173046 | 70 | 314 | 1.0 | 6.0 | 0.00 | 0.00 | 0.00 | 79 | 1011.9 |
| 20260507172542 | 70 | 259 | 1.0 | 3.0 | 0.00 | 0.00 | 0.00 | 80 | 1012.0 |
| 20260507172041 | 69 | 341 | 1.0 | 4.0 | 0.00 | 0.00 | 0.00 | 80 | 1012.1 |
| 20260507171540 | 69 | 50 | 1.0 | 5.0 | 0.00 | 0.00 | 0.00 | 81 | 1012.2 |
| 20260507171037 | 68 | 51 | 1.0 | 6.0 | 0.00 | 0.00 | 0.00 | 81 | 1012.3 |
| 20260507170538 | 68 | 332 | 1.0 | 6.0 | 0.00 | 0.00 | 0.00 | 80 | 1012.3 |
| 20260507170038 | 68 | 11 | 1.0 | 5.0 | 0.00 | 0.00 | 0.00 | 80 | 1012.1 |
| 20260507165536 | 68 | 293 | 1.0 | 5.0 | 0.00 | 0.00 | 0.00 | 81 | 1012.2 |
| 20260507165035 | 68 | 18 | 1.0 | 7.0 | 0.00 | 0.00 | 0.00 | 81 | 1012.2 |
| 20260507164805 | 67 | 349 | 1.0 | 7.0 | 0.00 | 0.00 | 0.00 | 82 | 1012.1 |
| 20260507164035 | 67 | 328 | 1.0 | 7.0 | 0.00 | 0.00 | 0.00 | 82 | 1012.2 |
| 20260507163536 | 67 | 319 | 1.0 | 7.0 | 0.00 | 0.00 | 0.00 | 82 | 1012.1 |
| 20260507163040 | 68 | 354 | 1.0 | 6.0 | 0.00 | 0.00 | 0.00 | 82 | 1012.0 |
| 20260507162534 | 67 | 86 | 1.0 | 6.0 | 0.00 | 0.00 | 0.00 | 83 | 1011.9 |
| 20260507162032 | 67 | 62 | 2.0 | 7.0 | 0.00 | 0.00 | 0.00 | 83 | 1011.8 |
| 20260507161531 | 67 | 233 | 2.0 | 7.0 | 0.00 | 0.00 | 0.00 | 83 | 1011.8 |
| 20260507161031 | 67 | 29 | 1.0 | 9.0 | 0.00 | 0.00 | 0.00 | 83 | 1011.7 |
| 20260507160531 | 67 | 75 | 1.0 | 9.0 | 0.00 | 0.00 | 0.00 | 83 | 1011.8 |
| 20260507160031 | 67 | 56 | 2.0 | 10.0 | 0.00 | 0.00 | 0.00 | 83 | 1011.9 |
| 20260507155532 | 67 | 47 | 2.0 | 10.0 | 0.00 | 0.00 | 0.00 | 83 | 1011.9 |
| 20260507155032 | 67 | 56 | 2.0 | 8.0 | 0.00 | 0.00 | 0.00 | 84 | 1011.9 |
| 20260507154526 | 67 | 306 | 2.0 | 8.0 | 0.00 | 0.00 | 0.00 | 84 | 1011.7 |
| 20260507154024 | 66 | 37 | 2.0 | 8.0 | 0.00 | 0.00 | 0.00 | 84 | 1011.7 |
| 20260507153522 | 66 | 349 | 2.0 | 8.0 | 0.00 | 0.00 | 0.00 | 84 | 1011.6 |
| 20260507153021 | 66 | 52 | 1.0 | 8.0 | 0.00 | 0.00 | 0.00 | 85 | 1011.7 |
| 20260507152519 | 66 | 356 | 1.0 | 6.0 | 0.00 | 0.00 | 0.00 | 85 | 1011.8 |
| 20260507152014 | 66 | 12 | 1.0 | 6.0 | 0.00 | 0.00 | 0.00 | 86 | 1011.8 |
| 20260507151745 | 66 | 45 | 1.0 | 8.0 | 0.00 | 0.00 | 0.00 | 86 | 1012.0 |
| 20260507151634 | 65 | 304 | 2.0 | 8.0 | 0.00 | 0.00 | 0.00 | 86 | 1012.0 |
| 20260507150514 | 65 | 308 | 2.0 | 9.0 | 0.00 | 0.00 | 0.00 | 86 | 1012.0 |
| 20260507150015 | 65 | 314 | 2.0 | 9.0 | 0.00 | 0.00 | 0.00 | 86 | 1012.0 |
| 20260507145513 | 65 | 21 | 2.0 | 9.0 | 0.00 | 0.00 | 0.00 | 86 | 1012.0 |
| 20260507145010 | 65 | 343 | 2.0 | 9.0 | 0.00 | 0.00 | 0.00 | 86 | 1012.1 |
| 20260507144510 | 66 | 339 | 2.0 | 8.0 | 0.00 | 0.00 | 0.00 | 86 | 1012.0 |
| 20260507144008 | 66 | 76 | 1.0 | 8.0 | 0.00 | 0.00 | 0.00 | 86 | 1011.9 |
| 20260507143508 | 66 | 243 | 2.0 | 7.0 | 0.00 | 0.00 | 0.00 | 86 | 1011.9 |
| 20260507143008 | 66 | 180 | 2.0 | 8.0 | 0.00 | 0.00 | 0.00 | 86 | 1011.9 |
| 20260507142508 | 66 | 342 | 2.0 | 8.0 | 0.00 | 0.00 | 0.00 | 86 | 1011.6 |
| 20260507142006 | 66 | 29 | 1.0 | 8.0 | 0.00 | 0.00 | 0.00 | 85 | 1011.4 |
| 20260507141502 | 66 | 280 | 1.0 | 4.0 | 0.00 | 0.00 | 0.00 | 86 | 1011.3 |
| 20260507141003 | 66 | 347 | 2.0 | 9.0 | 0.00 | 0.00 | 0.00 | 86 | 1011.4 |
| 20260507140504 | 66 | 49 | 2.0 | 9.0 | 0.00 | 0.00 | 0.00 | 86 | 1011.1 |
| 20260507140003 | 66 | 31 | 2.0 | 9.0 | 0.00 | 0.00 | 0.00 | 85 | 1011.1 |
| 20260507135733 | 67 | 310 | 2.0 | 9.0 | 0.00 | 0.00 | 0.00 | 85 | 1010.9 |
| 20260507134956 | 67 | 77 | 2.0 | 9.0 | 0.00 | 0.00 | 0.00 | 85 | 1010.8 |
| 20260507134456 | 67 | 77 | 2.0 | 9.0 | 0.00 | 0.00 | 0.00 | 85 | 1011.0 |
| 20260507133955 | 67 | 307 | 3.0 | 9.0 | 0.00 | 0.00 | 0.00 | 85 | 1011.0 |
| 20260507133457 | 67 | 127 | 2.0 | 9.0 | 0.00 | 0.00 | 0.00 | 85 | 1011.0 |
| 20260507132956 | 67 | 83 | 2.0 | 10.0 | 0.00 | 0.00 | 0.00 | 86 | 1010.9 |
| 20260507132456 | 67 | 25 | 2.0 | 10.0 | 0.00 | 0.00 | 0.00 | 86 | 1011.2 |
| 20260507131950 | 67 | 43 | 2.0 | 7.0 | 0.00 | 0.00 | 0.00 | 85 | 1011.5 |
| 20260507131449 | 67 | 217 | 2.0 | 6.0 | 0.00 | 0.00 | 0.00 | 86 | 1011.6 |
| 20260507130950 | 67 | 18 | 2.0 | 8.0 | 0.00 | 0.00 | 0.00 | 86 | 1011.5 |
| 20260507130722 | 67 | 346 | 1.0 | 8.0 | 0.00 | 0.00 | 0.00 | 86 | 1011.5 |
| 20260507125950 | 67 | 285 | 2.0 | 6.0 | 0.00 | 0.00 | 0.00 | 86 | 1011.5 |
| 20260507125449 | 67 | 162 | 2.0 | 6.0 | 0.00 | 0.00 | 0.00 | 86 | 1011.2 |
| 20260507124947 | 67 | 311 | 1.0 | 8.0 | 0.00 | 0.00 | 0.00 | 86 | 1011.2 |
| 20260507124446 | 67 | 341 | 2.0 | 8.0 | 0.00 | 0.00 | 0.00 | 86 | 1011.2 |
| 20260507124217 | 68 | 289 | 2.0 | 7.0 | 0.00 | 0.00 | 0.00 | 86 | 1011.2 |
| 20260507123717 | 68 | 323 | 2.0 | 6.0 | 0.00 | 0.00 | 0.00 | 86 | 1011.4 |
| 20260507122943 | 68 | 300 | 1.0 | 6.0 | 0.00 | 0.00 | 0.00 | 86 | 1011.4 |
| 20260507122444 | 68 | 345 | 1.0 | 6.0 | 0.00 | 0.00 | 0.00 | 86 | 1010.8 |
| 20260507121942 | 68 | 351 | 1.0 | 8.0 | 0.00 | 0.00 | 0.00 | 86 | 1010.7 |
| 20260507121439 | 68 | 326 | 1.0 | 7.0 | 0.00 | 0.00 | 0.00 | 86 | 1010.6 |
| 20260507120939 | 68 | 323 | 1.0 | 6.0 | 0.00 | 0.00 | 0.00 | 86 | 1010.5 |
| 20260507120710 | 68 | 314 | 1.0 | 5.0 | 0.00 | 0.00 | 0.00 | 86 | 1010.4 |
| 20260507115937 | 68 | 34 | 0.0 | 5.0 | 0.00 | 0.00 | 0.00 | 86 | 1010.2 |
| 20260507115438 | 68 | 311 | 1.0 | 7.0 | 0.00 | 0.00 | 0.00 | 86 | 1010.3 |
| 20260507114931 | 68 | 11 | 1.0 | 7.0 | 0.00 | 0.00 | 0.00 | 86 | 1010.1 |
| 20260507114431 | 68 | 44 | 0.0 | 6.0 | 0.00 | 0.00 | 0.00 | 86 | 1010.2 |
| 20260507113932 | 68 | 38 | 0.0 | 6.0 | 0.00 | 0.00 | 0.00 | 86 | 1010.0 |
| 20260507113432 | 68 | 345 | 0.0 | 6.0 | 0.00 | 0.00 | 0.00 | 86 | 1009.9 |
| 20260507113203 | 68 | 1 | 0.0 | 3.0 | 0.00 | 0.00 | 0.00 | 86 | 1009.7 |
| 20260507112432 | 68 | 351 | 0.0 | 3.0 | 0.00 | 0.00 | 0.00 | 86 | 1009.8 |
| 20260507111924 | 68 | 315 | 0.0 | 3.0 | 0.00 | 0.00 | 0.00 | 86 | 1009.9 |
| 20260507111425 | 68 | 51 | 0.0 | 3.0 | 0.00 | 0.00 | 0.00 | 86 | 1009.5 |
| 20260507110925 | 68 | 353 | 0.0 | 5.0 | 0.00 | 0.00 | 0.00 | 86 | 1009.6 |
| 20260507110426 | 68 | 105 | 1.0 | 5.0 | 0.00 | 0.00 | 0.00 | 86 | 1009.3 |
| 20260507110157 | 68 | 335 | 1.0 | 5.0 | 0.00 | 0.00 | 0.00 | 85 | 1009.4 |
| 20260507105426 | 68 | 330 | 0.0 | 5.0 | 0.00 | 0.00 | 0.00 | 85 | 1009.3 |
| 20260507104921 | 68 | 6 | 1.0 | 5.0 | 0.00 | 0.00 | 0.00 | 85 | 1009.6 |
| 20260507104421 | 68 | 313 | 1.0 | 9.0 | 0.00 | 0.00 | 0.00 | 85 | 1009.6 |
| 20260507103921 | 68 | 313 | 1.0 | 9.0 | 0.00 | 0.00 | 0.00 | 85 | 1009.5 |
| 20260507103422 | 68 | 358 | 0.0 | 3.0 | 0.00 | 0.00 | 0.00 | 85 | 1009.6 |
| 20260507102919 | 68 | 267 | 0.0 | 3.0 | 0.00 | 0.00 | 0.00 | 85 | 1009.5 |
| 20260507102652 | 68 | 6 | 0.0 | 3.0 | 0.00 | 0.00 | 0.00 | 85 | 1009.4 |
| 20260507101915 | 68 | 323 | 0.0 | 5.0 | 0.00 | 0.00 | 0.00 | 85 | 1009.5 |
| 20260507101416 | 68 | 319 | 0.0 | 5.0 | 0.00 | 0.00 | 0.00 | 85 | 1009.5 |
| 20260507100913 | 68 | 315 | 0.0 | 2.0 | 0.00 | 0.00 | 0.00 | 85 | 1009.3 |
| 20260507100411 | 68 | 317 | 0.0 | 3.0 | 0.00 | 0.00 | 0.00 | 85 | 1009.2 |
| 20260507095910 | 68 | 311 | 0.0 | 3.0 | 0.00 | 0.00 | 0.00 | 85 | 1009.0 |
| 20260507095642 | 68 | 325 | 0.0 | 3.0 | 0.00 | 0.00 | 0.00 | 85 | 1009.0 |
| 20260507094906 | 68 | 330 | 0.0 | 3.0 | 0.00 | 0.00 | 0.00 | 85 | 1009.0 |
| 20260507094406 | 68 | 284 | 0.0 | 2.0 | 0.00 | 0.00 | 0.00 | 85 | 1008.9 |
| 20260507093902 | 68 | 48 | 0.0 | 3.0 | 0.00 | 0.00 | 0.00 | 85 | 1008.8 |
| 20260507093404 | 68 | 356 | 0.0 | 4.0 | 0.00 | 0.00 | 0.00 | 85 | 1008.7 |
| 20260507092904 | 68 | 50 | 1.0 | 6.0 | 0.00 | 0.00 | 0.00 | 85 | 1008.6 |
| 20260507092633 | 68 | 350 | 1.0 | 6.0 | 0.00 | 0.00 | 0.00 | 85 | 1008.8 |
| 20260507091859 | 68 | 30 | 1.0 | 5.0 | 0.00 | 0.00 | 0.00 | 85 | 1008.7 |
| 20260507091400 | 68 | 331 | 1.0 | 9.0 | 0.00 | 0.00 | 0.00 | 85 | 1008.9 |
| 20260507090900 | 68 | 42 | 1.0 | 9.0 | 0.00 | 0.00 | 0.00 | 84 | 1008.7 |
| 20260507090359 | 68 | 27 | 1.0 | 7.0 | 0.00 | 0.00 | 0.00 | 84 | 1008.6 |
| 20260507085859 | 68 | 293 | 1.0 | 7.0 | 0.00 | 0.00 | 0.00 | 84 | 1008.6 |
| 20260507085400 | 68 | 1 | 1.0 | 7.0 | 0.00 | 0.00 | 0.00 | 84 | 1008.7 |
| 20260507084855 | 68 | 65 | 2.0 | 8.0 | 0.00 | 0.00 | 0.00 | 84 | 1008.7 |
| 20260507084356 | 68 | 353 | 1.0 | 8.0 | 0.00 | 0.00 | 0.00 | 84 | 1008.8 |
| 20260507083856 | 69 | 300 | 1.0 | 6.0 | 0.00 | 0.00 | 0.00 | 84 | 1008.7 |
| 20260507083354 | 69 | 342 | 1.0 | 6.0 | 0.00 | 0.00 | 0.00 | 83 | 1008.7 |
| 20260507082855 | 69 | 287 | 1.0 | 6.0 | 0.00 | 0.00 | 0.00 | 83 | 1008.7 |
| 20260507082356 | 69 | 312 | 1.0 | 6.0 | 0.00 | 0.00 | 0.00 | 84 | 1008.6 |
| 20260507081855 | 69 | 51 | 1.0 | 6.0 | 0.00 | 0.00 | 0.00 | 83 | 1008.4 |
| 20260507081349 | 69 | 64 | 1.0 | 8.0 | 0.00 | 0.00 | 0.00 | 83 | 1008.4 |
| 20260507080850 | 69 | 49 | 1.0 | 8.0 | 0.00 | 0.00 | 0.00 | 83 | 1008.5 |
| 20260507080619 | 69 | 331 | 1.0 | 8.0 | 0.00 | 0.00 | 0.00 | 83 | 1008.7 |
| 20260507075850 | 69 | 25 | 1.0 | 8.0 | 0.00 | 0.00 | 0.00 | 83 | 1008.6 |
| 20260507075345 | 69 | 330 | 1.0 | 7.0 | 0.00 | 0.00 | 0.00 | 83 | 1008.9 |
| 20260507074846 | 69 | 309 | 1.0 | 7.0 | 0.00 | 0.00 | 0.00 | 83 | 1008.9 |
| 20260507074353 | 69 | 254 | 1.0 | 7.0 | 0.00 | 0.00 | 0.00 | 83 | 1009.0 |
| 20260507074346 | 69 | 37 | 1.0 | 7.0 | 0.00 | 0.00 | 0.00 | 83 | 1009.0 |
| 20260507073345 | 69 | 328 | 1.0 | 6.0 | 0.00 | 0.00 | 0.00 | 83 | 1009.0 |
| 20260507072846 | 70 | 20 | 1.0 | 5.0 | 0.00 | 0.00 | 0.00 | 83 | 1009.0 |
| 20260507072611 | 70 | 72 | 1.0 | 5.0 | 0.00 | 0.00 | 0.00 | 83 | 1009.1 |
| 20260507071841 | 70 | 4 | 1.0 | 4.0 | 0.00 | 0.00 | 0.00 | 83 | 1009.1 |
| 20260507071613 | 70 | 295 | 1.0 | 4.0 | 0.00 | 0.00 | 0.00 | 83 | 1009.3 |
| 20260507070841 | 70 | 310 | 1.0 | 8.0 | 0.00 | 0.00 | 0.00 | 83 | 1009.3 |
| 20260507070611 | 70 | 345 | 1.0 | 8.0 | 0.00 | 0.00 | 0.00 | 82 | 1009.3 |
| 20260507065842 | 70 | 34 | 1.0 | 5.0 | 0.00 | 0.00 | 0.00 | 82 | 1009.2 |
| 20260507065336 | 70 | 306 | 1.0 | 6.0 | 0.00 | 0.00 | 0.00 | 83 | 1009.3 |
| 20260507065110 | 70 | 327 | 2.0 | 7.0 | 0.00 | 0.00 | 0.00 | 83 | 1009.1 |
| 20260507064337 | 70 | 345 | 2.0 | 7.0 | 0.00 | 0.00 | 0.00 | 83 | 1008.9 |
| 20260507063837 | 71 | 274 | 1.0 | 9.0 | 0.00 | 0.00 | 0.00 | 82 | 1008.8 |
| 20260507063337 | 71 | 303 | 1.0 | 9.0 | 0.00 | 0.00 | 0.00 | 82 | 1009.0 |
| 20260507062837 | 71 | 311 | 1.0 | 8.0 | 0.00 | 0.00 | 0.00 | 82 | 1009.0 |
| 20260507062333 | 71 | 326 | 1.0 | 6.0 | 0.00 | 0.00 | 0.00 | 82 | 1009.0 |
| 20260507061834 | 71 | 297 | 1.0 | 6.0 | 0.00 | 0.00 | 0.00 | 83 | 1008.9 |
| 20260507061334 | 71 | 316 | 1.0 | 8.0 | 0.00 | 0.00 | 0.00 | 82 | 1008.8 |
| 20260507060832 | 71 | 30 | 1.0 | 8.0 | 0.00 | 0.00 | 0.00 | 82 | 1008.8 |
| 20260507060333 | 71 | 347 | 1.0 | 7.0 | 0.00 | 0.00 | 0.00 | 83 | 1008.8 |
| 20260507055834 | 71 | 328 | 1.0 | 7.0 | 0.00 | 0.00 | 0.00 | 83 | 1008.7 |
| 20260507055329 | 71 | 295 | 1.0 | 7.0 | 0.00 | 0.00 | 0.00 | 82 | 1008.6 |
| 20260507054829 | 71 | 329 | 1.0 | 7.0 | 0.00 | 0.00 | 0.00 | 83 | 1008.6 |
| 20260507054329 | 71 | 263 | 1.0 | 8.0 | 0.00 | 0.00 | 0.00 | 83 | 1008.5 |
| 20260507053830 | 71 | 317 | 1.0 | 8.0 | 0.00 | 0.00 | 0.00 | 82 | 1008.6 |
| 20260507053329 | 71 | 49 | 1.0 | 6.0 | 0.00 | 0.00 | 0.00 | 82 | 1008.5 |
| 20260507052830 | 72 | 329 | 1.0 | 5.0 | 0.00 | 0.00 | 0.00 | 82 | 1008.5 |
| 20260507052329 | 72 | 45 | 1.0 | 7.0 | 0.00 | 0.00 | 0.00 | 82 | 1008.7 |
| 20260507051829 | 72 | 326 | 2.0 | 7.0 | 0.00 | 0.00 | 0.00 | 82 | 1008.6 |
| 20260507051323 | 72 | 66 | 2.0 | 7.0 | 0.00 | 0.00 | 0.00 | 82 | 1008.6 |
| 20260507050823 | 72 | 13 | 2.0 | 7.0 | 0.00 | 0.00 | 0.00 | 82 | 1008.6 |
| 20260507050324 | 72 | 319 | 1.0 | 7.0 | 0.00 | 0.00 | 0.00 | 82 | 1008.5 |
| 20260507045823 | 72 | 321 | 1.0 | 7.0 | 0.00 | 0.00 | 0.00 | 82 | 1008.5 |
| 20260507045324 | 73 | 103 | 0.0 | 5.0 | 0.00 | 0.00 | 0.00 | 82 | 1008.4 |
| 20260507044823 | 73 | 326 | 1.0 | 7.0 | 0.00 | 0.00 | 0.00 | 82 | 1008.7 |
| 20260507044317 | 73 | 306 | 1.0 | 7.0 | 0.00 | 0.00 | 0.00 | 82 | 1008.6 |
| 20260507043819 | 73 | 139 | 2.0 | 9.0 | 0.00 | 0.00 | 0.00 | 81 | 1008.4 |
| 20260507043316 | 73 | 13 | 2.0 | 9.0 | 0.00 | 0.00 | 0.00 | 81 | 1008.2 |
| 20260507042818 | 73 | 30 | 1.0 | 7.0 | 0.00 | 0.00 | 0.00 | 81 | 1008.4 |
| 20260507042549 | 73 | 336 | 1.0 | 6.0 | 0.00 | 0.00 | 0.00 | 81 | 1008.4 |
| 20260507041817 | 73 | 283 | 1.0 | 6.0 | 0.00 | 0.00 | 0.00 | 81 | 1008.5 |
| 20260507041545 | 73 | 261 | 2.0 | 6.0 | 0.00 | 0.00 | 0.00 | 81 | 1008.5 |
| 20260507040814 | 73 | 34 | 2.0 | 7.0 | 0.00 | 0.00 | 0.00 | 81 | 1008.6 |
| 20260507040314 | 74 | 343 | 2.0 | 9.0 | 0.00 | 0.00 | 0.00 | 81 | 1008.6 |
| 20260507035814 | 74 | 350 | 1.0 | 9.0 | 0.00 | 0.00 | 0.00 | 81 | 1008.6 |
| 20260507035314 | 74 | 344 | 1.0 | 7.0 | 0.00 | 0.00 | 0.00 | 81 | 1008.7 |
| 20260507034814 | 74 | 327 | 1.0 | 7.0 | 0.00 | 0.00 | 0.00 | 81 | 1008.5 |
| 20260507034315 | 74 | 15 | 2.0 | 7.0 | 0.00 | 0.00 | 0.00 | 81 | 1008.5 |
| 20260507033809 | 74 | 304 | 1.0 | 7.0 | 0.00 | 0.00 | 0.00 | 81 | 1008.3 |
| 20260507033310 | 74 | 334 | 1.0 | 6.0 | 0.00 | 0.00 | 0.00 | 81 | 1008.2 |
| 20260507032810 | 74 | 349 | 1.0 | 6.0 | 0.00 | 0.00 | 0.00 | 81 | 1008.1 |
| 20260507032315 | 75 | 48 | 1.0 | 8.0 | 0.00 | 0.00 | 0.00 | 81 | 1008.0 |
| 20260507031810 | 75 | 338 | 2.0 | 8.0 | 0.00 | 0.00 | 0.00 | 81 | 1007.8 |
| 20260507031310 | 75 | 358 | 2.0 | 8.0 | 0.00 | 0.00 | 0.00 | 81 | 1007.8 |
| 20260507030811 | 75 | 283 | 1.0 | 9.0 | 0.00 | 0.00 | 0.00 | 81 | 1007.6 |
| 20260507030305 | 75 | 309 | 2.0 | 9.0 | 0.00 | 0.00 | 0.00 | 82 | 1007.6 |
| 20260507030035 | 75 | 263 | 2.0 | 9.0 | 0.00 | 0.00 | 0.00 | 82 | 1007.5 |
| 20260507025534 | 76 | 273 | 2.0 | 9.0 | 0.00 | 0.00 | 0.00 | 81 | 1007.4 |
| 20260507024804 | 76 | 333 | 3.0 | 9.0 | 0.00 | 0.00 | 0.00 | 82 | 1007.3 |
| 20260507024304 | 76 | 316 | 2.0 | 9.0 | 0.00 | 0.00 | 0.00 | 81 | 1007.3 |
| 20260507023804 | 76 | 314 | 2.0 | 9.0 | 0.00 | 0.00 | 0.00 | 81 | 1007.1 |
| 20260507023537 | 76 | 290 | 2.0 | 9.0 | 0.00 | 0.00 | 0.00 | 82 | 1006.9 |
| 20260507022803 | 77 | 301 | 1.0 | 6.0 | 0.00 | 0.00 | 0.00 | 82 | 1006.8 |
| 20260507022307 | 77 | 305 | 1.0 | 5.0 | 0.00 | 0.00 | 0.00 | 82 | 1006.7 |
| 20260507021802 | 77 | 309 | 1.0 | 5.0 | 0.00 | 0.00 | 0.00 | 82 | 1006.6 |
| 20260507021300 | 77 | 346 | 1.0 | 6.0 | 0.00 | 0.00 | 0.00 | 83 | 1006.6 |
| 20260507020803 | 77 | 322 | 1.0 | 6.0 | 0.00 | 0.00 | 0.00 | 82 | 1006.5 |
| 20260507020531 | 77 | 17 | 1.0 | 7.0 | 0.00 | 0.00 | 0.00 | 82 | 1006.4 |
| 20260507015800 | 77 | 268 | 2.0 | 7.0 | 0.00 | 0.00 | 0.00 | 82 | 1006.4 |
| 20260507015526 | 78 | 334 | 2.0 | 6.0 | 0.00 | 0.00 | 0.00 | 82 | 1006.3 |
| 20260507015414 | 78 | 325 | 2.0 | 6.0 | 0.00 | 0.00 | 0.00 | 83 | 1006.4 |
| 20260507014253 | 78 | 293 | 2.0 | 7.0 | 0.00 | 0.00 | 0.00 | 83 | 1006.3 |
| 20260507013800 | 79 | 286 | 2.0 | 8.0 | 0.00 | 0.00 | 0.00 | 83 | 1006.1 |
| 20260507013755 | 79 | 333 | 2.0 | 7.0 | 0.00 | 0.00 | 0.00 | 82 | 1006.1 |
| 20260507012751 | 80 | 248 | 1.0 | 8.0 | 0.00 | 0.00 | 0.00 | 85 | 1006.0 |
| 20260507012252 | 81 | 242 | 0.0 | 1.0 | 0.00 | 0.00 | 0.00 | 89 | 1005.7 |
| 20260507011752 | 81 | 269 | 0.0 | 0.0 | 0.00 | 0.00 | 0.00 | 88 | 1005.7 |
| 20260507011252 | 81 | 269 | 0.0 | 0.0 | 0.00 | 0.00 | 0.00 | 88 | 1005.5 |
| 20260507010751 | 81 | 269 | 0.0 | 1.0 | 0.00 | 0.00 | 0.00 | 88 | 1005.5 |
| 20260507010253 | 81 | 269 | 0.0 | 1.0 | 0.00 | 0.00 | 0.00 | 87 | 1005.4 |
| 20260507005748 | 81 | 256 | 0.0 | 1.0 | 0.00 | 0.00 | 0.00 | 87 | 1005.2 |
| 20260507005243 | 82 | 257 | 0.0 | 1.0 | 0.00 | 0.00 | 0.00 | 87 | 1005.1 |
| 20260507004737 | 82 | 115 | 0.0 | 1.0 | 0.00 | 0.00 | 0.00 | 86 | 1004.9 |